When you browse on this site, cookies collect data to enhance your experience and personalize the content and advertising you see.
Visit our Privacy Policy to learn more. By continuing to use the site, you agree to this use of cookies and data.
  • Em Portugal
  • Lista de países
  • Para 7 dias
  • Temperatura da água
  • Mapas de satélite
  • Mapa do tempo
  • Widgets de tempo
  • user-avatar
    Iniciar Sessão

    Previsão horária em Golden Sands

    Hoje, 16 Novembro, Sexta-feira

    Tempo Temperatura Precipitação Vento Pressão Humidade
    00:00 +2°C° 0.1 mm 9 m/s 766 mmHg 78%
    01:00 +2°C° 0.1 mm 9 m/s 766 mmHg 80%
    02:00 +1°C° 0 mm 10 m/s 766 mmHg 82%
    03:00 +1°C° 0.1 mm 10 m/s 766 mmHg 82%
    04:00 +1°C° 0.1 mm 10 m/s 766 mmHg 82%
    05:00 +1°C° 0.1 mm 10 m/s 767 mmHg 82%
    06:00 +1°C° 0.1 mm 10 m/s 767 mmHg 81%
    07:00 +1°C° 0.1 mm 10 m/s 767 mmHg 81%
    08:00 +1°C° 0 mm 11 m/s 767 mmHg 79%
    09:00 +1°C° 0.1 mm 11 m/s 768 mmHg 78%
    10:00 +1°C° 0.1 mm 10 m/s 768 mmHg 76%
    11:00 +1°C° 0.1 mm 10 m/s 768 mmHg 75%
    12:00 +1°C° 0 mm 10 m/s 768 mmHg 73%
    13:00 +1°C° 0 mm 10 m/s 769 mmHg 72%
    14:00 +1°C° 0 mm 10 m/s 769 mmHg 71%
    15:00 0°C° 0.1 mm 9 m/s 769 mmHg 73%
    16:00 0°C° 0.1 mm 9 m/s 769 mmHg 75%
    17:00 -1°C° 0.1 mm 9 m/s 769 mmHg 77%
    18:00 -1°C° 0.1 mm 9 m/s 769 mmHg 78%
    19:00 -1°C° 0.1 mm 9 m/s 770 mmHg 80%
    20:00 -1°C° 0.1 mm 8 m/s 770 mmHg 81%
    21:00 -1°C° 0 mm 8 m/s 770 mmHg 82%
    22:00 -1°C° 0 mm 8 m/s 770 mmHg 82%
    23:00 -1°C° 0 mm 8 m/s 770 mmHg 83%

    Amanhã, 17 Novembro, Sábado

    Tempo Temperatura Precipitação Vento Pressão Humidade
    00:00 -1°C° 0 mm 8 m/s 770 mmHg 84%
    01:00 -1°C° 0 mm 8 m/s 770 mmHg 85%
    02:00 -1°C° 0 mm 8 m/s 770 mmHg 86%
    03:00 -1°C° 0 mm 8 m/s 770 mmHg 86%
    04:00 -1°C° 0 mm 7 m/s 770 mmHg 87%
    05:00 -1°C° 0 mm 7 m/s 770 mmHg 87%
    06:00 -1°C° 0 mm 7 m/s 770 mmHg 87%
    07:00 -1°C° 0 mm 7 m/s 770 mmHg 87%
    08:00 -1°C° 0 mm 7 m/s 770 mmHg 87%
    09:00 0°C° 0.1 mm 7 m/s 770 mmHg 86%
    10:00 0°C° 0.1 mm 7 m/s 770 mmHg 85%
    11:00 +2°C° 0.1 mm 7 m/s 770 mmHg 84%
    12:00 +2°C° 0.1 mm 7 m/s 770 mmHg 84%
    13:00 +3°C° 0.1 mm 7 m/s 770 mmHg 85%
    14:00 +4°C° 0.1 mm 7 m/s 770 mmHg 86%
    15:00 +4°C° 0.1 mm 7 m/s 770 mmHg 86%
    16:00 +4°C° 0.1 mm 6 m/s 770 mmHg 87%
    17:00 +5°C° 0.1 mm 6 m/s 770 mmHg 87%
    18:00 +5°C° 0.1 mm 6 m/s 770 mmHg 87%
    19:00 +5°C° 0.1 mm 7 m/s 770 mmHg 87%
    20:00 +5°C° 0.1 mm 7 m/s 770 mmHg 87%
    21:00 +5°C° 0.2 mm 7 m/s 770 mmHg 87%
    22:00 +5°C° 0.2 mm 7 m/s 770 mmHg 87%
    23:00 +5°C° 0.2 mm 6 m/s 770 mmHg 87%

    Depois de amanhã, 18 Novembro, Domingo

    Tempo Temperatura Precipitação Vento Pressão Humidade
    00:00 +5°C° 0.2 mm 6 m/s 770 mmHg 87%
    01:00 +4°C° 0.2 mm 6 m/s 770 mmHg 87%
    02:00 +4°C° 0.2 mm 6 m/s 770 mmHg 87%
    03:00 +4°C° 0.3 mm 7 m/s 769 mmHg 87%
    04:00 +3°C° 0.3 mm 7 m/s 769 mmHg 86%
    05:00 +2°C° 0.3 mm 8 m/s 769 mmHg 86%
    06:00 +2°C° 0.2 mm 8 m/s 769 mmHg 86%
    07:00 +2°C° 0.2 mm 8 m/s 769 mmHg 85%
    08:00 +1°C° 0.2 mm 8 m/s 769 mmHg 85%
    09:00 +2°C° 0.1 mm 8 m/s 769 mmHg 82%
    10:00 +4°C° 0.1 mm 7 m/s 769 mmHg 79%
    11:00 +4°C° 0.1 mm 7 m/s 769 mmHg 77%
    12:00 +5°C° 0 mm 7 m/s 768 mmHg 75%
    13:00 +5°C° 0 mm 7 m/s 767 mmHg 73%
    14:00 +6°C° 0 mm 7 m/s 767 mmHg 71%
    15:00 +5°C° 0 mm 6 m/s 766 mmHg 73%
    16:00 +4°C° 0 mm 6 m/s 766 mmHg 75%
    17:00 +4°C° 0 mm 6 m/s 766 mmHg 77%
    18:00 +4°C° 0 mm 6 m/s 765 mmHg 78%
    19:00 +3°C° 0 mm 5 m/s 765 mmHg 78%
    20:00 +3°C° 0 mm 5 m/s 764 mmHg 78%
    21:00 +3°C° 0 mm 5 m/s 764 mmHg 78%
    22:00 +3°C° 0 mm 6 m/s 763 mmHg 79%
    23:00 +3°C° 0 mm 6 m/s 763 mmHg 79%

    19 Novembro, Segunda-feira

    Tempo Temperatura Precipitação Vento Pressão Humidade
    00:00 +3°C° 0.2 mm 6 m/s 763 mmHg 80%
    01:00 +4°C° 0.2 mm 6 m/s 762 mmHg 80%
    02:00 +4°C° 0.2 mm 6 m/s 762 mmHg 81%
    03:00 +4°C° 0.5 mm 6 m/s 761 mmHg 83%
    04:00 +4°C° 0.5 mm 6 m/s 761 mmHg 85%
    05:00 +4°C° 0.5 mm 6 m/s 760 mmHg 87%
    06:00 +5°C° 0.2 mm 6 m/s 760 mmHg 87%
    07:00 +5°C° 0.2 mm 6 m/s 760 mmHg 87%
    08:00 +5°C° 0.2 mm 7 m/s 760 mmHg 87%
    09:00 +6°C° 0.1 mm 7 m/s 760 mmHg 84%
    10:00 +8°C° 0.1 mm 7 m/s 760 mmHg 81%
    11:00 +8°C° 0.1 mm 7 m/s 760 mmHg 78%
    12:00 +8°C° 0.2 mm 7 m/s 759 mmHg 79%
    13:00 +8°C° 0.2 mm 7 m/s 759 mmHg 80%
    14:00 +8°C° 0.2 mm 6 m/s 759 mmHg 81%
    15:00 +8°C° 0.2 mm 6 m/s 759 mmHg 83%
    16:00 +8°C° 0.2 mm 6 m/s 759 mmHg 86%
    17:00 +8°C° 0.2 mm 6 m/s 759 mmHg 88%
    18:00 +8°C° 0.3 mm 6 m/s 759 mmHg 90%
    19:00 +8°C° 0.3 mm 6 m/s 759 mmHg 91%
    20:00 +8°C° 0.3 mm 6 m/s 759 mmHg 92%
    21:00 +8°C° 0.2 mm 5 m/s 759 mmHg 92%
    22:00 +9°C° 0.2 mm 5 m/s 759 mmHg 92%
    23:00 +9°C° 0.2 mm 5 m/s 759 mmHg 93%

    20 Novembro, Terça-feira

    Tempo Temperatura Precipitação Vento Pressão Humidade
    00:00 +10°C° 0.3 mm 4 m/s 759 mmHg 93%
    01:00 +10°C° 0.3 mm 4 m/s 759 mmHg 93%
    02:00 +10°C° 0.3 mm 4 m/s 759 mmHg 93%
    03:00 +10°C° 0.4 mm 4 m/s 760 mmHg 94%
    04:00 +10°C° 0.4 mm 3 m/s 760 mmHg 94%
    05:00 +10°C° 0.4 mm 3 m/s 760 mmHg 94%
    06:00 +10°C° 0.1 mm 3 m/s 760 mmHg 94%
    07:00 +10°C° 0.1 mm 3 m/s 760 mmHg 95%
    08:00 +10°C° 0.1 mm 3 m/s 760 mmHg 95%
    09:00 +12°C° 0 mm 2 m/s 760 mmHg 93%
    10:00 +13°C° 0 mm 2 m/s 761 mmHg 92%
    11:00 +13°C° 0 mm 2 m/s 761 mmHg 90%
    12:00 +13°C° 0.2 mm 2 m/s 760 mmHg 90%
    13:00 +12°C° 0.2 mm 3 m/s 760 mmHg 90%
    14:00 +12°C° 0.2 mm 3 m/s 760 mmHg 90%
    15:00 +12°C° 0.5 mm 4 m/s 759 mmHg 92%
    16:00 +12°C° 0.5 mm 4 m/s 759 mmHg 94%
    17:00 +12°C° 0.5 mm 5 m/s 759 mmHg 96%
    18:00 +13°C° 0.5 mm 6 m/s 758 mmHg 95%
    19:00 +12°C° 0.5 mm 7 m/s 758 mmHg 95%
    20:00 +13°C° 0.5 mm 8 m/s 758 mmHg 94%
    21:00 +13°C° 0.6 mm 8 m/s 757 mmHg 93%
    22:00 +13°C° 0.6 mm 9 m/s 757 mmHg 92%
    23:00 +13°C° 0.6 mm 9 m/s 756 mmHg 91%

    21 Novembro, Quarta-feira

    Tempo Temperatura Precipitação Vento Pressão Humidade
    00:00 +15°C° 0.2 mm 9 m/s 756 mmHg 89%
    01:00 +15°C° 0.2 mm 9 m/s 755 mmHg 88%
    02:00 +15°C° 0.2 mm 9 m/s 755 mmHg 86%
    03:00 +15°C° 0.2 mm 9 m/s 754 mmHg 85%
    04:00 +15°C° 0.2 mm 9 m/s 754 mmHg 85%
    05:00 +15°C° 0.2 mm 9 m/s 753 mmHg 84%
    06:00 +14°C° 0.2 mm 10 m/s 753 mmHg 83%
    07:00 +14°C° 0.2 mm 10 m/s 753 mmHg 83%
    08:00 +16°C° 0.2 mm 11 m/s 752 mmHg 83%
    09:00 +16°C° 0.5 mm 11 m/s 752 mmHg 79%
    10:00 +17°C° 0.5 mm 11 m/s 752 mmHg 76%
    11:00 +17°C° 0.5 mm 11 m/s 752 mmHg 72%
    12:00 +18°C° 0 mm 10 m/s 751 mmHg 69%
    13:00 +18°C° 0 mm 10 m/s 751 mmHg 66%
    14:00 +19°C° 0 mm 10 m/s 750 mmHg 63%
    15:00 +18°C° 0 mm 9 m/s 751 mmHg 65%
    16:00 +17°C° 0 mm 8 m/s 751 mmHg 67%
    17:00 +17°C° 0 mm 7 m/s 751 mmHg 70%
    18:00 +16°C° 0 mm 7 m/s 751 mmHg 72%
    19:00 +15°C° 0 mm 6 m/s 751 mmHg 74%
    20:00 +15°C° 0 mm 6 m/s 752 mmHg 76%
    21:00 +15°C° 0 mm 6 m/s 752 mmHg 74%
    22:00 +14°C° 0 mm 6 m/s 753 mmHg 71%
    23:00 +14°C° 0 mm 5 m/s 753 mmHg 69%
    Mostrar mais